Weather History for KMCF - January, 2013

Change the Weather History Date:

Wednesday, January 9, 2013

  Actual Average Record
Temperature  
Mean Temperature 76 °F -  
Max Temperature 85 °F 68 °F 85 °F (2013)
Min Temperature 67 °F 49 °F 35 °F (2002)
Cooling Degree Days 11    
Growing Degree Days 26 (Base 50)    
Moisture  
Dew Point 69 °F    
Average Humidity 86    
Maximum Humidity 100    
Minimum Humidity 59    
Precipitation  
Precipitation 0.00 in - - ()
Sea Level Pressure  
Sea Level Pressure 30.23 in    
Wind  
Wind Speed 8 mph (ESE)    
Max Wind Speed 12 mph    
Max Gust Speed 20 mph    
Visibility 10 miles    
Events      
Averages and records for this station are not official NWS values.
T = Trace of Precipitation, MM = Missing Value Source: NWS Daily Summary

Daily Weather History Graph

Daily Weather History Graph

Search for Another Location

Airport or City:

Trip Planner

Search our weather history database for the weather conditions in past years. The results will help you decide how hot, cold, wet, or windy it might be!

Date:

Astronomy

Jan. 09, 2013 Rise Set
Actual Time 7:22 AM EST 5:52 PM EST
Civil Twilight 6:57 AM EST 6:17 PM EST
Nautical Twilight 6:28 AM EST 6:46 PM EST
Astronomical Twilight 5:59 AM EST 7:15 PM EST
Moon 5:00 AM EST (1/9) 3:53 PM EST (1/9)
Length of Visible Light 11h 20m
Length of Day
10h 29m
Waning Crescent, 6% of the Moon is Illuminated
Jan 9
Waning Crescent
Jan 11
New
Jan 18
First Quarter
Jan 26
Full
Feb 3
Last Quarter

Hourly Weather History & Observations

Time (EST) Temp. Heat Index Dew Point Humidity Pressure Visibility Wind Dir Wind Speed Gust Speed Precip Events Conditions
12:55 AM 70.9 °F - 70.2 °F 98% 30.19 in 10.0 mi East 6.9 mph - N/A   Overcast
1:55 AM 69.6 °F - 69.1 °F 98% 30.20 in 10.0 mi East 6.9 mph - N/A   Partly Cloudy
2:55 AM 68.2 °F - 68.2 °F 100% 30.19 in 10.0 mi East 8.1 mph - N/A   Clear
3:55 AM 68.4 °F - 68.4 °F 100% 30.19 in 10.0 mi East 9.2 mph - N/A   Clear
4:47 AM 68.0 °F - 68.0 °F 100% 30.18 in 8.0 mi East 8.1 mph - N/A   Scattered Clouds
4:55 AM 67.3 °F - 67.3 °F 100% 30.18 in 9.0 mi East 8.1 mph - N/A   Partly Cloudy
5:47 AM 68.0 °F - 68.0 °F 100% 30.19 in 9.0 mi ESE 9.2 mph - N/A   Clear
5:55 AM 68.0 °F - 68.0 °F 100% 30.19 in 10.0 mi East 9.2 mph - N/A   Clear
6:04 AM 68.0 °F - 68.0 °F 100% 30.20 in 9.0 mi ESE 9.2 mph - N/A   Clear
6:05 AM 68.0 °F - 68.0 °F 100% 30.20 in 9.0 mi ESE 9.2 mph - N/A   Clear
6:55 AM 68.2 °F - 68.2 °F 100% 30.21 in 10.0 mi ESE 8.1 mph - N/A   Partly Cloudy
7:55 AM 68.5 °F - 68.5 °F 100% 30.23 in 10.0 mi ESE 6.9 mph - N/A   Clear
8:55 AM 71.4 °F - 71.4 °F 100% 30.26 in 10.0 mi ESE 6.9 mph - N/A   Scattered Clouds
9:55 AM 75.7 °F - 72.7 °F 90% 30.28 in 10.0 mi SE 10.4 mph 19.6 mph N/A   Clear
10:55 AM 78.6 °F - 72.1 °F 80% 30.29 in 10.0 mi SE 11.5 mph - N/A   Partly Cloudy
11:26 AM 78.8 °F - 71.6 °F 78% 30.28 in 10.0 mi SSE 8.1 mph - N/A   Mostly Cloudy
11:43 AM 80.6 °F 84.6 °F 71.6 °F 74% 30.27 in 10.0 mi SE 9.2 mph - N/A   Scattered Clouds
11:55 AM 81.5 °F 86.3 °F 72.3 °F 74% 30.27 in 10.0 mi SE 8.1 mph - N/A   Scattered Clouds
12:55 PM 82.9 °F 87.2 °F 70.5 °F 66% 30.24 in 10.0 mi SSE 11.5 mph - N/A   Clear
1:55 PM 84.0 °F 88.1 °F 69.6 °F 62% 30.22 in 10.0 mi SSE 8.1 mph - N/A   Clear
2:55 PM 85.5 °F 89.8 °F 69.4 °F 59% 30.22 in 10.0 mi SE 5.8 mph - N/A   Scattered Clouds
3:55 PM 84.0 °F 87.3 °F 68.4 °F 59% 30.21 in 10.0 mi SE 6.9 mph - N/A   Clear
4:55 PM 83.5 °F 86.4 °F 67.6 °F 59% 30.22 in 10.0 mi SE 5.8 mph - N/A   Clear
5:55 PM 78.6 °F - 67.1 °F 68% 30.22 in 10.0 mi ESE 6.9 mph - N/A   Clear
6:55 PM 75.0 °F - 64.9 °F 71% 30.24 in 10.0 mi East 5.8 mph - N/A   Clear
7:55 PM 74.1 °F - 66.7 °F 78% 30.25 in 10.0 mi ESE 10.4 mph - N/A   Clear
8:55 PM 74.1 °F - 69.3 °F 85% 30.26 in 10.0 mi ESE 10.4 mph - N/A   Clear
9:55 PM 73.0 °F - 70.9 °F 93% 30.28 in 10.0 mi SE 9.2 mph - N/A   Clear
10:55 PM 71.8 °F - 71.1 °F 98% 30.29 in 10.0 mi ESE 9.2 mph - N/A   Clear
11:55 PM 70.5 °F - 70.5 °F 100% 30.30 in 10.0 mi ESE 6.9 mph - N/A   Clear